[[{"header":{"parameterUnit":"m.s-1","parameterCategory":1,"la1":30.2991,"la2":30.254,"lo1":-89.0895,"lo2":-89.0444,"dy":0.0017,"dx":0.0017,"nx":28,"ny":28,"refTime":"2024-07-16T21:00:00:Z","depth":0,"parameterNumber":2,"parameterNumberName":"U-component_of_WINDS"},"data":[0,0,0,0,0,0,0,0,0,0,0,0,0,0,0,0,0,0,0,0,0,0,0,0,0,0,0,0,0,0,0,0,0,0,0,0,0,0,0,0,0,0,0,0,0,0,0,0,0,0,0,0,0,0,0,0,0,0,3.7867,3.7869,0,3.8003,3.8004,3.8006,3.7986,3.7984,3.7982,3.7979,3.8116,3.8122,3.8128,0,0,0,0,0,0,0,0,0,0,0,0,0,3.7587,3.7593,3.7867,3.7869,3.7871,3.8002,3.8004,3.8006,3.7986,3.7984,3.7981,3.7978,3.8115,3.8121,3.8128,0,0,0,0,0,0,0,0,0,0,0,0,0,3.7714,3.7594,3.7867,3.7877,3.7879,3.8002,3.8004,3.8007,3.7987,3.7984,3.798,3.7977,3.8112,3.8121,3.8129,3.8251,0,0,3.8156,3.8159,0,0,0,0,0,0,0,0,3.7707,3.7725,3.7873,3.7876,3.7879,3.7974,3.7956,3.8089,3.7988,3.7946,3.7979,3.7975,3.8072,3.8083,3.8116,3.8257,3.8263,3.8156,3.8162,3.8165,3.8168,0,0,0,0,0,0,0,3.7699,3.7719,3.7921,3.7876,3.7879,3.7873,3.7887,3.7981,3.8026,3.7949,3.7948,3.7965,3.8072,3.8108,3.8119,3.8265,3.8156,3.8164,3.8169,3.8173,3.8508,3.8512,0,0,0,0,0,0,3.7687,3.7712,3.7916,3.7925,3.7783,3.7881,3.7897,3.7947,3.8025,3.8034,3.7967,3.7963,3.8095,3.8109,3.8124,3.8268,3.8165,3.8173,3.8178,3.8505,3.8509,3.8513,0,0,0,0,0,0,3.7682,3.7706,3.7911,3.7818,3.7844,3.7889,3.7946,3.7951,3.7987,3.8039,3.8046,3.7996,3.8093,3.8112,3.8219,3.8273,3.8177,3.8185,3.85,3.8506,3.8511,3.856,0,0,0,0,0,0,3.7674,3.7704,3.7752,3.7819,3.7849,3.8004,3.7949,3.7956,3.8002,3.7998,3.8067,3.8076,3.8092,3.8206,3.8227,3.8283,3.8192,3.8495,3.8503,3.8509,3.8553,3.8566,3.8577,0,0,0,0,0,3.7664,3.7761,3.7754,3.7779,3.7909,3.8008,3.8024,3.8041,3.8007,3.8054,3.8087,3.8073,3.8264,3.8217,3.8241,3.83,3.8492,3.8501,3.8509,3.8548,3.8564,3.8577,0,0,0,0,0,0,3.7698,3.777,3.7763,3.7885,3.794,3.8004,3.8064,3.8058,3.8124,3.8117,3.8135,3.8151,3.8258,3.829,3.8236,3.842,3.8373,3.8387,3.8395,3.841,3.8422,3.8411,3.8199,0,0,0,0,0,3.772,3.7795,3.7853,3.7955,3.7983,3.8019,3.8062,3.8071,3.8128,3.8151,3.8192,3.8248,3.832,3.8367,3.8437,3.8559,3.8571,3.8611,3.8623,3.8632,3.8643,3.8706,3.8723,3.8541,3.8541,3.854,0,0,3.7766,3.7814,3.786,3.7963,3.8007,3.8081,3.8039,3.8121,3.8176,3.8164,3.8266,3.8298,3.8361,3.8475,3.8527,3.8505,3.8697,3.8643,3.865,3.8656,3.8716,3.8734,3.8749,3.8546,3.8545,3.8544,0,0,3.7887,3.7932,3.802,3.8065,3.8131,3.8154,3.8175,3.824,3.826,3.8364,3.8355,3.842,3.8545,3.8589,3.8628,3.8764,3.8752,3.8786,3.8847,3.8908,3.8923,3.8935,3.898,3.8996,3.8797,3.8797,3.8797,0,3.7935,3.8049,3.8066,3.8149,3.8192,3.8185,3.8272,3.8314,3.84,3.843,3.8404,3.8558,3.8601,3.8723,3.8755,3.8789,3.8811,3.8777,3.8919,3.8932,3.8944,3.8987,3.9004,3.88,3.88,3.88,3.8799,0,3.8103,3.8182,3.8245,3.8327,3.8378,3.8463,3.8491,3.8541,3.8544,3.8569,3.8673,3.8723,3.8801,3.8831,3.8836,3.8953,3.8937,3.8915,3.8868,3.8965,3.9005,3.9022,3.8805,3.8804,3.8803,3.8802,0,0,3.8249,3.8339,3.8361,3.8397,3.8469,3.8529,3.8613,3.8689,3.8729,3.8789,3.8857,3.8961,3.8941,3.8985,3.8995,3.9049,3.9148,3.902,3.9022,3.9039,3.9276,3.9289,3.9308,3.9142,3.9145,3.9148,3.9269,0,3.8374,3.8522,3.8539,3.8669,3.874,3.8733,3.8805,3.8856,3.8881,3.8944,3.8972,3.9044,3.9014,3.904,3.9094,3.9124,3.9195,3.9116,3.9202,3.9205,3.9184,3.9329,3.9345,3.9457,3.9285,3.9288,3.929,0,3.854,3.8603,3.874,3.8799,3.883,3.8894,3.8963,3.9025,3.9081,3.9096,3.9144,3.9146,3.9229,3.918,3.9294,3.924,3.9276,3.9296,3.9301,3.9307,3.9251,3.9336,3.9494,3.9509,3.9316,3.9314,3.9312,0,3.8629,3.8748,3.8844,3.8876,3.8948,3.8993,3.9025,3.9078,3.9122,3.9182,3.921,3.928,3.9317,3.937,3.939,3.9353,3.9501,3.9455,3.9513,3.9512,3.9542,3.954,3.9704,3.9571,3.9571,3.9571,3.957,0,3.8765,3.8848,3.8884,3.8944,3.9036,3.9054,3.9144,3.9174,3.9221,3.9285,3.9284,3.9343,3.9366,3.9429,3.9445,3.9534,3.9552,3.9564,3.9566,3.9562,3.956,3.9584,3.9576,3.9575,3.9574,3.9573,3.9573,0,3.8879,3.8907,3.9011,3.907,3.9087,3.9152,3.9202,3.9258,3.9282,3.9362,3.9382,3.9419,3.9492,3.9518,3.9607,3.9617,3.972,3.9718,3.97,3.97,3.9755,3.9748,3.9939,3.9963,3.9817,3.9818,3.982,0,3.8962,3.9026,3.9092,3.9134,3.9167,3.9236,3.928,3.93,3.9345,3.9413,3.946,3.9532,3.9591,3.9708,3.9742,3.9809,3.9807,3.9869,3.9817,3.9809,3.9803,3.9798,3.9802,3.9877,3.9879,3.988,3.9881,0,3.9107,3.9117,3.918,3.9248,3.9301,3.9355,3.9408,3.9442,3.947,3.952,3.9595,3.964,3.973,3.9801,3.9869,3.9901,3.9894,3.9897,3.9914,3.9908,3.9894,3.9899,3.9723,3.9892,3.9891,3.989,3.989,3.9889,3.9206,3.926,3.9314,3.9384,3.9426,3.9474,3.9529,3.9559,3.9622,3.9696,3.9704,3.9783,3.9835,3.9926,3.9961,4.0021,4.0004,4.0029,4.0034,4.0039,4.0041,3.9887,4.0034,4.0034,4.0034,4.0034,4.0034,0,3.9347,3.938,3.9445,3.9518,3.9572,3.9563,3.962,3.9665,3.9735,3.9784,3.9842,3.9925,3.9994,4.0033,4.01,4.0141,4.014,4.0158,4.0154,4.016,4.0055,4.0033,4.0158,4.0158,4.0158,4.0158,4.0158,4.0158,3.9426,3.9517,3.9533,3.9644,3.9677,3.9754,3.9787,3.9831,3.987,3.9963,4.002,4.0045,4.0089,4.016,4.0221,4.023,4.0254,4.0273,4.028,4.0181,4.0168,4.0156,4.0134,4.0279,4.0279,4.038,4.0381,4.0381]},{"header":{"parameterUnit":"m.s-1","parameterCategory":1,"la1":30.2991,"la2":30.254,"lo1":-89.0895,"lo2":-89.0444,"dy":0.0017,"dx":0.0017,"nx":28,"ny":28,"refTime":"2024-07-16T21:00:00:Z","depth":0,"parameterNumber":3,"parameterNumberName":"V-component_of_WINDS"},"data":[0,0,0,0,0,0,0,0,0,0,0,0,0,0,0,0,0,0,0,0,0,0,0,0,0,0,0,0,0,0,0,0,0,0,0,0,0,0,0,0,0,0,0,0,0,0,0,0,0,0,0,0,0,0,0,0,0,0,0.9265,0.9266,0,0.937,0.9371,0.9372,0.9374,0.9372,0.9371,0.937,0.9481,0.9485,0.9489,0,0,0,0,0,0,0,0,0,0,0,0,0,0.907,0.9074,0.9265,0.9266,0.9268,0.9369,0.9371,0.9372,0.9374,0.9372,0.9371,0.9369,0.948,0.9485,0.949,0,0,0,0,0,0,0,0,0,0,0,0,0,0.9163,0.9075,0.9265,0.9281,0.9283,0.9369,0.9371,0.9373,0.9374,0.9372,0.937,0.9369,0.9478,0.9484,0.9491,0.9569,0,0,0.951,0.9512,0,0,0,0,0,0,0,0,0.9158,0.917,0.9277,0.928,0.9283,0.9356,0.9343,0.9439,0.9375,0.934,0.937,0.9368,0.9442,0.9451,0.9475,0.9574,0.9579,0.951,0.9514,0.9517,0.9519,0,0,0,0,0,0,0,0.9151,0.9166,0.9307,0.9279,0.9282,0.9284,0.9295,0.9361,0.9401,0.9343,0.9343,0.9355,0.9443,0.9469,0.9478,0.9581,0.951,0.9516,0.952,0.9522,0.9749,0.9751,0,0,0,0,0,0,0.9141,0.916,0.9303,0.931,0.9214,0.9289,0.9301,0.9335,0.94,0.9408,0.9357,0.9355,0.9459,0.947,0.9481,0.9577,0.9517,0.9523,0.9526,0.9747,0.9749,0.9752,0,0,0,0,0,0,0.9137,0.9154,0.9299,0.9235,0.9254,0.9294,0.9332,0.9338,0.9364,0.9411,0.9418,0.9376,0.9458,0.9473,0.9547,0.9581,0.9525,0.9531,0.9744,0.9747,0.9751,0.977,0,0,0,0,0,0,0.9131,0.9152,0.9182,0.9236,0.9257,0.9362,0.9334,0.9341,0.9374,0.9373,0.943,0.9438,0.9457,0.9537,0.9553,0.9589,0.9536,0.9741,0.9746,0.975,0.9766,0.9773,0.9779,0,0,0,0,0,0.9124,0.9184,0.9183,0.9201,0.9295,0.9364,0.9376,0.9396,0.9377,0.9408,0.9437,0.9436,0.9575,0.9545,0.9563,0.9601,0.9739,0.9744,0.9749,0.9763,0.9772,0.9779,0,0,0,0,0,0,0.9135,0.9192,0.9191,0.927,0.9312,0.9364,0.9403,0.9405,0.9454,0.9451,0.9474,0.9487,0.9561,0.9588,0.9554,0.968,0.9655,0.9664,0.9659,0.9668,0.9675,0.9667,0.9541,0,0,0,0,0,0.9147,0.9197,0.9244,0.9309,0.933,0.9362,0.9393,0.9405,0.945,0.9468,0.9503,0.9548,0.9601,0.9636,0.9688,0.977,0.9783,0.9805,0.9811,0.9816,0.9824,0.9869,0.988,0.9768,0.9768,0.9768,0,0,0.9171,0.9208,0.9239,0.9312,0.9346,0.9398,0.9378,0.9434,0.9473,0.9477,0.9549,0.9576,0.9627,0.9705,0.9742,0.9731,0.9858,0.9823,0.9827,0.9832,0.9876,0.9886,0.9896,0.9772,0.9771,0.9771,0,0,0.9243,0.9275,0.9333,0.9366,0.9417,0.9438,0.9452,0.9503,0.9521,0.9593,0.9596,0.9644,0.9736,0.9772,0.9802,0.9886,0.9887,0.9902,0.9937,0.9981,0.9989,0.9997,1.0027,1.0038,0.9909,0.9909,0.9909,0,0.9267,0.9345,0.9363,0.9419,0.9451,0.9454,0.9513,0.9546,0.9611,0.9634,0.962,0.9734,0.9769,0.9855,0.9875,0.99,0.9917,0.9896,0.9986,0.9995,1.0002,1.0031,1.0042,0.9911,0.9911,0.991,0.991,0,0.9373,0.9427,0.9467,0.9528,0.9565,0.9623,0.965,0.9685,0.9692,0.9715,0.9789,0.983,0.989,0.9911,0.992,0.9999,0.999,0.9981,0.9957,1.0014,1.0042,1.0053,0.9913,0.9912,0.9912,0.9912,0,0,0.9456,0.9525,0.9539,0.9567,0.9622,0.9665,0.9722,0.9779,0.9809,0.9853,0.9902,0.9979,0.997,1.0005,1.0018,1.0056,1.0119,1.0042,1.0043,1.0055,1.0209,1.0216,1.0228,1.0119,1.0122,1.0123,1.0204,0,0.9534,0.9634,0.9651,0.974,0.979,0.9793,0.9843,0.9883,0.9905,0.9952,0.9977,1.0031,1.0015,1.0036,1.0074,1.0103,1.015,1.0098,1.0167,1.0169,1.0154,1.0243,1.0251,1.0325,1.0215,1.0217,1.0219,0,0.9638,0.9684,0.9777,0.9824,0.9846,0.989,0.9943,0.9987,1.0033,1.0046,1.0084,1.0092,1.0152,1.0124,1.0208,1.0171,1.02,1.0219,1.0222,1.023,1.0198,1.0254,1.035,1.0361,1.0236,1.0234,1.0233,0,0.969,0.9774,0.9841,0.9864,0.9921,0.9952,0.9978,1.0021,1.0053,1.01,1.0122,1.0175,1.0205,1.0247,1.0269,1.0246,1.0351,1.0325,1.0365,1.0365,1.0388,1.0387,1.0491,1.0406,1.0406,1.0405,1.0405,0,0.9775,0.9832,0.9864,0.9906,0.9969,0.9988,1.0051,1.0076,1.0114,1.0161,1.0167,1.0211,1.0237,1.0285,1.0303,1.037,1.0383,1.0396,1.0401,1.0396,1.0395,1.0417,1.0412,1.0408,1.0408,1.0407,1.0407,0,0.9844,0.9868,0.9941,0.9988,1.0001,1.0046,1.0087,1.0127,1.0149,1.0207,1.0222,1.0257,1.0313,1.0339,1.041,1.0422,1.0498,1.0498,1.0482,1.0484,1.0523,1.0519,1.0646,1.0663,1.0566,1.0567,1.0567,0,0.9898,0.9941,0.9992,1.0023,1.0049,1.0099,1.0131,1.0151,1.0186,1.0239,1.0273,1.0329,1.0376,1.0466,1.0498,1.0552,1.0554,1.0594,1.0562,1.0556,1.0555,1.0552,1.0557,1.0601,1.0602,1.0602,1.0603,0,0.999,0.9999,1.0046,1.0096,1.0135,1.0176,1.0216,1.0241,1.0268,1.0306,1.0363,1.0398,1.0469,1.0525,1.058,1.0608,1.061,1.0612,1.0625,1.0621,1.061,1.0617,1.0499,1.061,1.0609,1.0609,1.0608,1.0608,1.0053,1.0092,1.0133,1.0185,1.0217,1.0254,1.0294,1.032,1.0367,1.0425,1.0434,1.0495,1.0538,1.0612,1.0641,1.069,1.068,1.0698,1.0703,1.0707,1.0709,1.0602,1.07,1.07,1.07,1.07,1.0699,0,1.0146,1.0173,1.0219,1.0275,1.0315,1.0312,1.0356,1.0391,1.0443,1.0483,1.0527,1.0592,1.0646,1.0682,1.0737,1.0768,1.0771,1.0782,1.0781,1.0787,1.0715,1.0699,1.0779,1.0779,1.0779,1.0779,1.0779,1.0779,1.0199,1.0264,1.0278,1.0359,1.0385,1.0444,1.0469,1.0504,1.0535,1.0607,1.0651,1.0673,1.0711,1.0769,1.0818,1.0827,1.0847,1.0859,1.0868,1.08,1.0792,1.0784,1.0769,1.0863,1.0863,1.0936,1.0937,1.0937]}]]